Location: Rostock
(54.0884°N, 12.1234°E)
Time: 03:23:08
(UTC+01:00)

ISS - Pass Details

Date: 05 January 2018
Orbit: 402 x 407 km, 51.6° (Epoch: 22 January)

Event Time Altitude Azimuth Distance (km) Brightness Sun altitude
Exits shadow 06:03:26 52° 186° (S) 512 -3.4 -20.1°
Maximum altitude 06:03:36 53° 173° (S) 508 -3.3 -20.0°
Drops below altitude 10° 06:06:50 10° 96° (E) 1,472 0.2 -19.6°
Sets 06:08:56 0° 91° (E) 2,334 1.6 -19.3°
